| time (UTC) | temp C | wind direction | speed KPH | gust KPH | rain 1hr cm | rain 24hr cm | rain mn cm | humidity % | barometer mb |
| 20260906113046 | 22 | 153 | 0.0 | 1.6 | 0.00 | 0.00 | 0.00 | 96 | 1015.6 |
| 20260906111547 | 22 | 104 | 0.0 | 0.0 | 0.00 | 0.00 | 0.00 | 96 | 1015.4 |
| 20260906110143 | 22 | 104 | 0.0 | 0.0 | 0.00 | 0.00 | 0.00 | 96 | 1015.3 |
| 20260906104539 | 22 | 171 | 0.0 | 1.6 | 0.00 | 0.00 | 0.00 | 96 | 1015.1 |
| 20260906103047 | 22 | 145 | 0.0 | 0.0 | 0.00 | 0.00 | 0.00 | 95 | 1015.0 |
| 20260906101536 | 22 | 131 | 0.0 | 1.6 | 0.00 | 0.00 | 0.00 | 95 | 1014.7 |
| 20260906100134 | 22 | 192 | 0.0 | 0.0 | 0.00 | 0.00 | 0.00 | 95 | 1014.5 |
| 20260906094549 | 22 | 192 | 0.0 | 3.2 | 0.00 | 0.00 | 0.00 | 95 | 1014.4 |
| 20260906093051 | 22 | 184 | 0.0 | 0.0 | 0.00 | 0.00 | 0.00 | 95 | 1014.2 |
| 20260906091548 | 21 | 184 | 0.0 | 0.0 | 0.00 | 0.00 | 0.00 | 95 | 1013.9 |
| 20260906090147 | 21 | 184 | 0.0 | 0.0 | 0.00 | 0.00 | 0.00 | 95 | 1013.8 |
| 20260906084542 | 21 | 184 | 0.0 | 0.0 | 0.00 | 0.00 | 0.00 | 95 | 1013.7 |
| 20260906083041 | 21 | 184 | 0.0 | 0.0 | 0.00 | 0.00 | 0.00 | 95 | 1013.8 |
| 20260906081540 | 21 | 184 | 0.0 | 0.0 | 0.00 | 0.00 | 0.00 | 95 | 1013.7 |
| 20260906080139 | 21 | 101 | 0.0 | 0.0 | 0.00 | 0.00 | 0.00 | 95 | 1013.6 |
| 20260906074537 | 21 | 101 | 0.0 | 0.0 | 0.00 | 0.00 | 0.00 | 95 | 1013.2 |
| 20260906073045 | 21 | 101 | 0.0 | 0.0 | 0.00 | 0.00 | 0.00 | 95 | 1013.2 |
| 20260906071534 | 21 | 101 | 0.0 | 0.0 | 0.00 | 0.00 | 0.00 | 95 | 1013.2 |
| 20260906070132 | 21 | 101 | 0.0 | 0.0 | 0.00 | 0.00 | 0.00 | 95 | 1013.2 |
| 20260906064549 | 21 | 101 | 0.0 | 0.0 | 0.00 | 0.00 | 0.00 | 95 | 1013.5 |
| 20260906063050 | 21 | 101 | 0.0 | 0.0 | 0.00 | 0.00 | 0.00 | 95 | 1013.5 |
| 20260906061548 | 21 | 101 | 0.0 | 0.0 | 0.00 | 0.00 | 0.00 | 95 | 1013.5 |
| 20260906060147 | 22 | 101 | 0.0 | 0.0 | 0.00 | 0.00 | 0.00 | 95 | 1013.5 |
| 20260906054544 | 22 | 101 | 0.0 | 0.0 | 0.00 | 0.00 | 0.00 | 95 | 1013.7 |
| 20260906053039 | 22 | 101 | 0.0 | 0.0 | 0.00 | 0.00 | 0.00 | 95 | 1013.9 |
| 20260906051553 | 22 | 101 | 0.0 | 0.0 | 0.00 | 0.00 | 0.00 | 95 | 1014.2 |
| 20260906050137 | 22 | 101 | 0.0 | 0.0 | 0.00 | 0.00 | 0.00 | 95 | 1014.2 |
| 20260906044555 | 22 | 101 | 0.0 | 0.0 | 0.00 | 0.00 | 0.00 | 95 | 1014.3 |
| 20260906043059 | 22 | 101 | 0.0 | 0.0 | 0.00 | 0.00 | 0.00 | 95 | 1014.4 |
| 20260906041557 | 22 | 101 | 0.0 | 0.0 | 0.00 | 0.00 | 0.00 | 95 | 1014.5 |
| 20260906040149 | 22 | 101 | 0.0 | 0.0 | 0.00 | 0.00 | 0.00 | 95 | 1014.5 |
| 20260906034605 | 22 | 101 | 0.0 | 0.0 | 0.00 | 0.00 | 0.00 | 95 | 1014.5 |
| 20260906033044 | 22 | 101 | 0.0 | 0.0 | 0.00 | 0.00 | 0.00 | 95 | 1014.5 |
| 20260906031547 | 22 | 101 | 0.0 | 0.0 | 0.00 | 0.00 | 0.00 | 95 | 1014.5 |
| 20260906030140 | 22 | 101 | 0.0 | 0.0 | 0.00 | 0.00 | 0.00 | 95 | 1014.4 |
| 20260906024536 | 22 | 101 | 0.0 | 0.0 | 0.00 | 0.00 | 0.00 | 95 | 1014.3 |
| 20260906023035 | 23 | 101 | 0.0 | 0.0 | 0.00 | 0.00 | 0.00 | 95 | 1014.4 |
| 20260906021535 | 23 | 101 | 0.0 | 0.0 | 0.00 | 0.00 | 0.00 | 95 | 1014.1 |
| 20260906020135 | 23 | 101 | 0.0 | 0.0 | 0.00 | 0.00 | 0.00 | 94 | 1013.9 |
| 20260906014553 | 23 | 101 | 0.0 | 0.0 | 0.00 | 0.00 | 0.00 | 94 | 1014.0 |
| 20260906013102 | 23 | 101 | 0.0 | 0.0 | 0.00 | 0.00 | 0.00 | 93 | 1014.3 |
| 20260906011549 | 23 | 101 | 0.0 | 1.6 | 0.00 | 0.00 | 0.00 | 92 | 1014.1 |
| 20260906010150 | 24 | 89 | 0.0 | 0.0 | 0.00 | 0.00 | 0.00 | 91 | 1013.7 |
| 20260906004540 | 24 | 89 | 0.0 | 0.0 | 0.00 | 0.00 | 0.00 | 90 | 1013.6 |
| 20260906003040 | 24 | 89 | 0.0 | 0.0 | 0.00 | 0.00 | 0.00 | 89 | 1013.6 |
| 20260906001540 | 25 | 89 | 0.0 | 0.0 | 0.00 | 0.00 | 0.00 | 87 | 1013.4 |
| 20260906000139 | 25 | 184 | 0.0 | 0.0 | 0.00 | 0.00 | 0.00 | 86 | 1013.0 |
| 20260905234537 | 25 | 184 | 0.0 | 0.0 | 0.00 | 0.00 | 0.00 | 85 | 1012.8 |
| 20260905233041 | 25 | 185 | 0.0 | 0.0 | 0.00 | 0.00 | 0.00 | 84 | 1012.7 |
| 20260905231534 | 26 | 135 | 0.0 | 1.6 | 0.00 | 0.00 | 0.00 | 83 | 1012.6 |
| 20260905230132 | 26 | 153 | 0.0 | 3.2 | 0.00 | 0.00 | 0.00 | 82 | 1012.4 |
| 20260905224552 | 26 | 96 | 0.0 | 1.6 | 0.00 | 0.00 | 0.00 | 81 | 1012.1 |
| 20260905223051 | 26 | 75 | 0.0 | 0.0 | 0.00 | 0.00 | 0.00 | 80 | 1012.1 |
| 20260905221548 | 26 | 280 | 0.0 | 3.2 | 0.00 | 0.00 | 0.00 | 79 | 1012.4 |
| 20260905220144 | 26 | 44 | 0.0 | 3.2 | 0.00 | 0.00 | 0.00 | 79 | 1012.7 |
| 20260905214539 | 27 | 151 | 0.0 | 3.2 | 0.00 | 0.00 | 0.00 | 79 | 1012.6 |
| 20260905213038 | 26 | 15 | 0.0 | 0.0 | 0.00 | 0.00 | 0.00 | 79 | 1012.2 |
| 20260905211539 | 26 | 35 | 0.0 | 1.6 | 0.00 | 0.00 | 0.00 | 79 | 1012.0 |
| 20260905210138 | 26 | 193 | 0.0 | 0.0 | 0.00 | 0.00 | 0.00 | 80 | 1012.0 |
| 20260905204553 | 27 | 158 | 0.0 | 0.0 | 0.00 | 0.00 | 0.00 | 80 | 1012.2 |
| 20260905203103 | 27 | 184 | 0.0 | 0.0 | 0.00 | 0.00 | 0.00 | 81 | 1012.1 |
| 20260905201547 | 27 | 184 | 0.0 | 0.0 | 0.00 | 0.00 | 0.00 | 80 | 1012.0 |
| 20260905200146 | 27 | 98 | 0.0 | 1.6 | 0.00 | 0.00 | 0.00 | 76 | 1012.2 |
| 20260905194539 | 30 | 82 | 0.0 | 8.0 | 0.00 | 0.00 | 0.00 | 67 | 1013.4 |
| 20260905193038 | 33 | 211 | 1.6 | 8.0 | 0.00 | 0.00 | 0.00 | 57 | 1012.7 |
| 20260905191541 | 35 | 224 | 0.0 | 0.0 | 0.00 | 0.00 | 0.00 | 52 | 1011.7 |
| 20260905190137 | 35 | 20 | 0.0 | 1.6 | 0.00 | 0.00 | 0.00 | 51 | 1011.7 |
| 20260905184601 | 36 | 168 | 0.0 | 8.0 | 0.00 | 0.00 | 0.00 | 48 | 1011.5 |
| 20260905183055 | 37 | 25 | 0.0 | 4.8 | 0.00 | 0.00 | 0.00 | 44 | 1011.9 |
| 20260905181553 | 37 | 203 | 0.0 | 6.4 | 0.00 | 0.00 | 0.00 | 47 | 1012.1 |
| 20260905180150 | 38 | 79 | 0.0 | 4.8 | 0.00 | 0.00 | 0.00 | 45 | 1012.4 |
| 20260905174554 | 38 | 206 | 1.6 | 6.4 | 0.00 | 0.00 | 0.00 | 44 | 1012.7 |
| 20260905173047 | 38 | 147 | 0.0 | 6.4 | 0.00 | 0.00 | 0.00 | 45 | 1013.3 |
| 20260905171557 | 37 | 26 | 0.0 | 9.7 | 0.00 | 0.00 | 0.00 | 46 | 1013.6 |
| 20260905170144 | 37 | 218 | 0.0 | 8.0 | 0.00 | 0.00 | 0.00 | 50 | 1013.7 |
| 20260905164546 | 37 | 352 | 0.0 | 6.4 | 0.00 | 0.00 | 0.00 | 53 | 1014.1 |
| 20260905163049 | 36 | 181 | 0.0 | 6.4 | 0.00 | 0.00 | 0.00 | 52 | 1014.2 |
| 20260905161538 | 36 | 353 | 0.0 | 6.4 | 0.00 | 0.00 | 0.00 | 50 | 1014.3 |
| 20260905160136 | 36 | 16 | 0.0 | 9.7 | 0.00 | 0.00 | 0.00 | 51 | 1014.4 |
| 20260905154632 | 36 | 211 | 0.0 | 1.6 | 0.00 | 0.05 | 0.00 | 50 | 1014.6 |
| 20260905153053 | 35 | 215 | 0.0 | 6.4 | 0.00 | 0.05 | 0.00 | 53 | 1014.9 |
| 20260905151551 | 35 | 160 | 0.0 | 6.4 | 0.00 | 0.05 | 0.00 | 55 | 1015.0 |
| 20260905150148 | 34 | 321 | 0.0 | 6.4 | 0.00 | 0.05 | 0.00 | 59 | 1015.0 |
| 20260905144553 | 33 | 12 | 0.0 | 3.2 | 0.00 | 0.05 | 0.00 | 61 | 1014.9 |
| 20260905143052 | 32 | 234 | 0.0 | 4.8 | 0.00 | 0.05 | 0.00 | 63 | 1015.0 |
| 20260905141544 | 31 | 245 | 0.0 | 3.2 | 0.00 | 0.05 | 0.00 | 69 | 1014.9 |
| 20260905140139 | 30 | 83 | 0.0 | 1.6 | 0.00 | 0.05 | 0.00 | 73 | 1014.8 |
| 20260905134543 | 29 | 210 | 0.0 | 1.6 | 0.00 | 0.05 | 0.00 | 76 | 1014.9 |
| 20260905133038 | 28 | 206 | 0.0 | 3.2 | 0.00 | 0.05 | 0.00 | 78 | 1015.0 |
| 20260905131538 | 27 | 205 | 0.0 | 1.6 | 0.00 | 0.05 | 0.00 | 81 | 1015.0 |
| 20260905130131 | 27 | 108 | 0.0 | 1.6 | 0.00 | 0.05 | 0.00 | 84 | 1015.1 |
| 20260905124548 | 26 | 6 | 0.0 | 0.0 | 0.00 | 0.05 | 0.00 | 86 | 1015.1 |
| 20260905123045 | 25 | 127 | 0.0 | 3.2 | 0.00 | 0.05 | 0.00 | 90 | 1015.2 |
| 20260905121544 | 23 | 175 | 0.0 | 0.0 | 0.00 | 0.05 | 0.00 | 95 | 1015.1 |
| 20260905120144 | 23 | 89 | 0.0 | 0.0 | 0.00 | 0.05 | 0.00 | 95 | 1015.1 |
| 20260905114537 | 22 | 182 | 0.0 | 0.0 | 0.00 | 0.05 | 0.00 | 95 | 1014.9 |